RH
27 30 32 30 30 27 26 25 25 33 37 39 49 63 71 76 84 78 76 66 52 56 55 58 57 50 52 47 45 44 43 45 46 44 49 56 47 51 56 56 53 55 67 76
31 33 29 29 28 27 26 27 23 27 29 30 46 56 70 72 77 78 76 75 61 52 53 51 59 66 59 48 44 41 37 35 39 39 46 48 46 59 54 58 58 51 59 65
30 26 24 30 28 28 26 28 24 27 29 39 49 68 77 80 77 78 79 79 61 53 56 56 54 44 46 45 42 37 36 36 37 38 39 47 50 52 59 61 54 49 52 53
28 22 25 24 26 25 28 24 24 25 28 33 43 78 76 80 83 80 73 65 56 58 49 57 54 46 45 49 42 37 36 37 38 38 36 43 46 52 54 55 51 48 47 48
28 22 23 25 22 24 21 23 23 23 26 27 32 34 59 69 83 79 65 60 55 61 53 47 51 46 44 46 42 38 35 37 37 40 35 40 44 45 50 54 46 44 44 46
20 23 18 20 22 24 22 22 23 25 25 28 28 30 59 61 61 65 63 69 61 60 55 45 46 48 47 47 44 40 36 36 36 41 39 43 45 46 48 47 46 47 45 46
20 20 21 21 21 23 23 24 26 26 28 29 28 30 26 42 47 54 61 66 68 66 71 53 46 43 45 41 40 38 36 33 34 36 37 39 45 47 47 43 48 48 47 50
19 18 20 21 22 25 26 25 27 26 27 28 25 31 27 30 38 43 46 63 70 67 70 61 43 41 39 40 36 35 35 32 31 30 36 32 37 44 44 43 39 39 47 43
26 21 19 21 21 23 27 27 25 26 25 28 24 24 26 34 34 35 36 48 55 62 58 64 63 47 42 41 37 35 34 32 31 27 27 31 28 33 38 38 38 39 41 37
25 23 20 20 22 27 29 30 33 31 32 33 27 25 28 36 36 35 33 33 39 44 49 62 62 52 45 39 40 40 37 34 30 29 26 24 27 27 32 33 36 37 41 42
26 25 24 24 26 26 30 30 33 34 37 39 36 31 36 41 42 38 34 32 39 44 46 45 58 58 54 53 47 36 37 39 35 33 29 25 23 26 27 30 33 35 37 40
27 26 29 27 29 27 29 32 32 36 36 40 41 36 35 39 42 40 43 40 43 54 66 61 55 55 53 58 55 50 43 35 35 35 34 31 23 22 25 25 29 33 34 37
33 35 32 26 32 34 35 35 34 32 31 32 35 34 35 40 41 44 42 46 45 59 65 68 73 67 59 57 51 54 51 46 36 36 36 35 32 23 21 25 25 30 32 33
30 34 36 40 42 41 40 39 37 35 35 34 33 38 34 34 37 41 42 53 64 71 79 79 71 63 56 50 65 64 60 54 51 41 36 36 35 33 25 19 23 25 29 30
35 35 34 33 36 43 43 42 41 39 38 37 33 37 33 33 35 37 44 44 52 65 87 81 71 60 55 56 58 65 62 59 62 56 43 36 37 35 35 30 23 20 23 26
44 45 42 38 32 37 45 46 45 39 39 38 37 36 31 36 34 36 38 47 48 55 57 71 71 66 67 60 55 56 61 63 65 64 60 52 41 36 33 34 30 28 20 21
45 50 54 55 43 36 37 35 43 44 43 43 42 36 33 36 36 37 38 54 52 52 56 57 59 68 73 66 59 56 64 66 65 69 73 61 51 46 33 32 33 31 28 23
48 54 64 69 58 64 32 35 35 40 47 49 44 40 39 38 41 41 43 42 59 51 56 58 54 66 72 70 70 67 66 63 69 66 70 69 64 54 48 34 30 30 31 28
61 65 72 76 70 50 45 49 50 53 50 60 55 44 41 40 37 40 43 44 47 57 54 51 54 56 65 65 67 69 63 65 63 60 65 65 67 66 62 42 29 28 29 28
69 72 79 87 88 82 71 61 56 55 53 57 55 50 45 42 42 37 40 46 48 45 53 50 47 54 67 72 69 77 74 65 64 60 61 65 66 68 64 51 39 31 31 28
73 78 84 89 93 84 74 69 70 77 58 58 59 56 49 51 47 35 33 38 48 48 45 49 45 50 59 62 66 68 68 60 62 66 66 65 68 65 65 55 53 44 40 38
77 82 85 89 92 94 78 76 80 73 68 65 59 57 53 50 48 42 35 32 37 46 44 43 53 53 53 64 62 63 58 60 54 56 60 63 67 65 66 58 55 53 49 45
82 82 86 86 83 78 80 82 80 75 69 67 61 57 56 51 44 41 34 32 29 35 43 44 47 51 57 61 61 55 46 56 65 61 68 67 70 70 70 65 63 60 55 52
65 69 79 83 79 80 84 85 86 86 82 75 65 57 57 58 48 41 35 29 27 26 30 35 43 51 54 59 63 60 47 53 61 60 64 70 81 71 71 68 68 62 58 56
62 65 59 58 66 79 84 86 86 85 83 79 74 68 64 66 56 49 44 35 31 29 28 28 33 41 51 60 62 60 61 50 56 59 57 61 75 88 77 71 69 63 59 58
55 58 59 57 52 56 69 82 84 85 81 81 80 78 77 76 71 62 52 43 35 32 33 30 32 38 38 49 58 60 64 53 53 48 57 53 55 68 69 70 66 62 64 60